Location: Saratoga Springs
(43.0831°N, 73.7850°W)
Time: 12:34:56
(UTC-04:00)

SR - Pass Details

Date: 18 April 2024
Orbit: 579 x 859 km, 66.7° (Epoch: 27 May)

Event Time Altitude Azimuth Distance (km) Brightness Sun altitude
Exits shadow 02:35:17 40° 83° (E) 1,144 ? -31.2°
Drops below altitude 10° 02:39:13 10° 43° (NE) 2,283 ? -30.8°
Sets 02:41:36 0° 37° (NE) 3,166 ? -30.6°
